| time (UTC) | temp F | wind direction | speed MPH | gust MPH | rain 1hr in | rain 24hr in | rain mn in | humidity % | barometer mb |
| 20260504141003 | 68 | 183 | 3.0 | 6.0 | 0.00 | 0.00 | 0.00 | 72 | 1016.1 |
| 20260504140524 | 67 | 189 | 2.0 | 5.0 | 0.00 | 0.00 | 0.00 | 75 | 1016.1 |
| 20260504130503 | 57 | 183 | 1.0 | 4.0 | 0.00 | 0.00 | 0.00 | 90 | 1015.9 |
| 20260504110525 | 52 | 166 | 0.0 | 1.0 | 0.00 | 0.00 | 0.00 | 90 | 1015.5 |
| 20260504100525 | 53 | 202 | 0.0 | 1.0 | 0.00 | 0.00 | 0.00 | 90 | 1015.9 |
| 20260504082004 | 54 | 186 | 1.0 | 2.0 | 0.00 | 0.00 | 0.00 | 88 | 1016.0 |
| 20260504081504 | 54 | 191 | 1.0 | 2.0 | 0.00 | 0.00 | 0.00 | 88 | 1016.1 |
| 20260504081004 | 54 | 203 | 1.0 | 2.0 | 0.00 | 0.00 | 0.00 | 88 | 1016.1 |
| 20260504080504 | 54 | 185 | 1.0 | 2.0 | 0.00 | 0.00 | 0.00 | 88 | 1016.1 |
| 20260504050504 | 59 | 185 | 0.0 | 2.0 | 0.00 | 0.00 | 0.00 | 81 | 1017.4 |
| 20260504050025 | 59 | 193 | 0.0 | 2.0 | 0.00 | 0.00 | 0.00 | 81 | 1017.4 |
| 20260504045525 | 59 | 185 | 1.0 | 2.0 | 0.00 | 0.00 | 0.00 | 82 | 1017.4 |
| 20260504045004 | 59 | 174 | 1.0 | 3.0 | 0.00 | 0.00 | 0.00 | 82 | 1017.5 |
| 20260504044525 | 59 | 168 | 1.0 | 3.0 | 0.00 | 0.00 | 0.00 | 82 | 1017.4 |
| 20260504044004 | 59 | 176 | 1.0 | 2.0 | 0.00 | 0.00 | 0.00 | 82 | 1017.5 |
| 20260504043504 | 59 | 193 | 1.0 | 2.0 | 0.00 | 0.00 | 0.00 | 81 | 1017.6 |
| 20260504043025 | 60 | 188 | 1.0 | 2.0 | 0.00 | 0.00 | 0.00 | 81 | 1017.7 |
| 20260504042525 | 60 | 196 | 1.0 | 2.0 | 0.00 | 0.00 | 0.00 | 81 | 1017.7 |
| 20260504042004 | 60 | 203 | 1.0 | 2.0 | 0.00 | 0.00 | 0.00 | 82 | 1017.7 |
| 20260504041504 | 60 | 199 | 1.0 | 2.0 | 0.00 | 0.00 | 0.00 | 82 | 1017.6 |
| 20260504041004 | 60 | 189 | 1.0 | 2.0 | 0.00 | 0.00 | 0.00 | 81 | 1017.6 |
| 20260504040504 | 60 | 181 | 1.0 | 2.0 | 0.00 | 0.00 | 0.00 | 81 | 1017.5 |
| 20260504040025 | 60 | 186 | 1.0 | 2.0 | 0.00 | 0.00 | 0.00 | 81 | 1017.5 |
| 20260504035525 | 60 | 195 | 1.0 | 2.0 | 0.00 | 0.00 | 0.00 | 81 | 1017.6 |
| 20260504035004 | 61 | 191 | 1.0 | 2.0 | 0.00 | 0.00 | 0.00 | 82 | 1017.6 |
| 20260504034504 | 61 | 181 | 1.0 | 2.0 | 0.00 | 0.00 | 0.00 | 82 | 1017.4 |
| 20260504034004 | 60 | 186 | 1.0 | 2.0 | 0.00 | 0.00 | 0.00 | 81 | 1017.5 |
| 20260504033504 | 60 | 200 | 1.0 | 3.0 | 0.00 | 0.00 | 0.00 | 82 | 1017.6 |
| 20260504033025 | 60 | 195 | 1.0 | 3.0 | 0.00 | 0.00 | 0.00 | 83 | 1017.5 |
| 20260504032532 | 60 | 187 | 1.0 | 2.0 | 0.00 | 0.00 | 0.00 | 83 | 1017.5 |
| 20260504032004 | 60 | 199 | 1.0 | 2.0 | 0.00 | 0.00 | 0.00 | 83 | 1017.4 |
| 20260504031504 | 60 | 201 | 1.0 | 2.0 | 0.00 | 0.00 | 0.00 | 84 | 1017.4 |
| 20260504031004 | 60 | 194 | 1.0 | 3.0 | 0.00 | 0.00 | 0.00 | 84 | 1017.4 |
| 20260504030504 | 61 | 185 | 1.0 | 3.0 | 0.00 | 0.00 | 0.00 | 85 | 1017.3 |
| 20260504030004 | 61 | 161 | 1.0 | 2.0 | 0.00 | 0.00 | 0.00 | 84 | 1017.2 |
| 20260504025504 | 61 | 143 | 0.0 | 2.0 | 0.00 | 0.00 | 0.00 | 84 | 1017.2 |
| 20260504025004 | 61 | 114 | 0.0 | 1.0 | 0.00 | 0.00 | 0.00 | 83 | 1017.2 |
| 20260504024525 | 62 | 129 | 0.0 | 1.0 | 0.00 | 0.00 | 0.00 | 82 | 1017.2 |
| 20260504024004 | 62 | 155 | 0.0 | 1.0 | 0.00 | 0.00 | 0.00 | 82 | 1017.3 |
| 20260504023504 | 62 | 151 | 0.0 | 1.0 | 0.00 | 0.00 | 0.00 | 81 | 1017.3 |
| 20260504023025 | 63 | 190 | 0.0 | 1.0 | 0.00 | 0.00 | 0.00 | 81 | 1017.2 |
| 20260504022525 | 63 | 294 | 0.0 | 1.0 | 0.00 | 0.00 | 0.00 | 80 | 1017.2 |
| 20260504022004 | 63 | 329 | 0.0 | 1.0 | 0.00 | 0.00 | 0.00 | 80 | 1017.1 |
| 20260504021525 | 64 | 0 | 0.0 | 0.0 | 0.00 | 0.00 | 0.00 | 80 | 1017.1 |
| 20260504021004 | 64 | 153 | 0.0 | 1.0 | 0.00 | 0.00 | 0.00 | 79 | 1017.0 |
| 20260504020504 | 64 | 148 | 0.0 | 1.0 | 0.00 | 0.00 | 0.00 | 78 | 1016.9 |
| 20260504015504 | 65 | 145 | 0.0 | 1.0 | 0.00 | 0.00 | 0.00 | 77 | 1016.8 |
| 20260504015025 | 65 | 124 | 0.0 | 1.0 | 0.00 | 0.00 | 0.00 | 76 | 1016.8 |
| 20260504014525 | 66 | 0 | 0.0 | 0.0 | 0.00 | 0.00 | 0.00 | 75 | 1016.8 |
| 20260504014004 | 66 | 174 | 0.0 | 1.0 | 0.00 | 0.00 | 0.00 | 75 | 1016.8 |
| 20260504013525 | 67 | 170 | 0.0 | 1.0 | 0.00 | 0.00 | 0.00 | 74 | 1016.7 |
| 20260504013004 | 67 | 158 | 0.0 | 1.0 | 0.00 | 0.00 | 0.00 | 74 | 1016.8 |
| 20260504012504 | 68 | 35 | 0.0 | 1.0 | 0.00 | 0.00 | 0.00 | 72 | 1016.6 |
| 20260504012004 | 68 | 153 | 0.0 | 1.0 | 0.00 | 0.00 | 0.00 | 72 | 1016.5 |
| 20260504011504 | 69 | 142 | 0.0 | 1.0 | 0.00 | 0.00 | 0.00 | 71 | 1016.5 |
| 20260504011004 | 69 | 131 | 0.0 | 1.0 | 0.00 | 0.00 | 0.00 | 70 | 1016.5 |
| 20260504010525 | 70 | 149 | 0.0 | 1.0 | 0.00 | 0.00 | 0.00 | 69 | 1016.6 |
| 20260504010004 | 70 | 143 | 0.0 | 1.0 | 0.00 | 0.00 | 0.00 | 68 | 1016.5 |
| 20260504005504 | 71 | 124 | 0.0 | 1.0 | 0.00 | 0.00 | 0.00 | 68 | 1016.5 |
| 20260504005004 | 71 | 16 | 0.0 | 1.0 | 0.00 | 0.00 | 0.00 | 65 | 1016.6 |
| 20260504004525 | 72 | 125 | 0.0 | 1.0 | 0.00 | 0.00 | 0.00 | 66 | 1016.6 |
| 20260504004004 | 72 | 148 | 0.0 | 1.0 | 0.00 | 0.00 | 0.00 | 65 | 1016.6 |
| 20260504003504 | 72 | 191 | 0.0 | 2.0 | 0.00 | 0.00 | 0.00 | 65 | 1016.6 |
| 20260504003004 | 73 | 182 | 0.0 | 2.0 | 0.00 | 0.00 | 0.00 | 64 | 1016.7 |
| 20260504002525 | 73 | 162 | 0.0 | 1.0 | 0.00 | 0.00 | 0.00 | 65 | 1016.6 |
| 20260504002004 | 73 | 157 | 0.0 | 1.0 | 0.00 | 0.00 | 0.00 | 64 | 1016.7 |
| 20260504001504 | 74 | 155 | 0.0 | 1.0 | 0.00 | 0.00 | 0.00 | 63 | 1016.6 |
| 20260504000504 | 74 | 169 | 0.0 | 1.0 | 0.00 | 0.00 | 0.00 | 64 | 1016.6 |
| 20260504000004 | 74 | 156 | 0.0 | 1.0 | 0.00 | 0.00 | 0.00 | 62 | 1016.6 |
| 20260503235504 | 74 | 144 | 0.0 | 1.0 | 0.00 | 0.00 | 0.00 | 61 | 1016.7 |
| 20260503235004 | 74 | 122 | 0.0 | 1.0 | 0.00 | 0.00 | 0.00 | 61 | 1016.8 |
| 20260503234504 | 74 | 113 | 0.0 | 1.0 | 0.00 | 0.00 | 0.00 | 60 | 1016.8 |
| 20260503234004 | 75 | 117 | 0.0 | 1.0 | 0.00 | 0.00 | 0.00 | 59 | 1016.8 |
| 20260503233503 | 75 | 139 | 0.0 | 1.0 | 0.00 | 0.00 | 0.00 | 58 | 1016.8 |
| 20260503232504 | 75 | 209 | 0.0 | 1.0 | 0.00 | 0.00 | 0.00 | 55 | 1016.9 |
| 20260503232004 | 76 | 351 | 0.0 | 1.0 | 0.00 | 0.00 | 0.00 | 53 | 1016.9 |
| 20260503231504 | 76 | 344 | 0.0 | 1.0 | 0.00 | 0.00 | 0.00 | 55 | 1016.9 |
| 20260503231004 | 76 | 300 | 0.0 | 1.0 | 0.00 | 0.00 | 0.00 | 54 | 1017.0 |
| 20260503230504 | 77 | 233 | 0.0 | 1.0 | 0.00 | 0.00 | 0.00 | 55 | 1017.1 |
| 20260503230004 | 77 | 189 | 0.0 | 2.0 | 0.00 | 0.00 | 0.00 | 53 | 1017.1 |
| 20260503225503 | 77 | 208 | 0.0 | 2.0 | 0.00 | 0.00 | 0.00 | 51 | 1017.1 |
| 20260503225004 | 78 | 263 | 0.0 | 2.0 | 0.00 | 0.00 | 0.00 | 54 | 1017.1 |
| 20260503224504 | 78 | 181 | 1.0 | 3.0 | 0.00 | 0.00 | 0.00 | 54 | 1017.1 |
| 20260503224003 | 78 | 192 | 1.0 | 3.0 | 0.00 | 0.00 | 0.00 | 48 | 1017.2 |
| 20260503223504 | 78 | 210 | 1.0 | 3.0 | 0.00 | 0.00 | 0.00 | 46 | 1017.2 |
| 20260503223004 | 78 | 237 | 1.0 | 3.0 | 0.00 | 0.00 | 0.00 | 54 | 1017.3 |
| 20260503222504 | 77 | 291 | 1.0 | 3.0 | 0.00 | 0.00 | 0.00 | 51 | 1017.3 |
| 20260503222004 | 77 | 342 | 1.0 | 3.0 | 0.00 | 0.00 | 0.00 | 55 | 1017.3 |
| 20260503221504 | 77 | 346 | 1.0 | 3.0 | 0.00 | 0.00 | 0.00 | 56 | 1017.3 |
| 20260503221003 | 77 | 300 | 1.0 | 2.0 | 0.00 | 0.00 | 0.00 | 58 | 1017.4 |
| 20260503220504 | 76 | 315 | 1.0 | 2.0 | 0.00 | 0.00 | 0.00 | 56 | 1017.4 |
| 20260503220004 | 76 | 354 | 1.0 | 2.0 | 0.00 | 0.00 | 0.00 | 54 | 1017.5 |
| 20260503215504 | 78 | 356 | 1.0 | 2.0 | 0.00 | 0.00 | 0.00 | 54 | 1017.6 |
| 20260503215004 | 78 | 216 | 0.0 | 2.0 | 0.00 | 0.00 | 0.00 | 51 | 1017.7 |
| 20260503214504 | 79 | 203 | 0.0 | 2.0 | 0.00 | 0.00 | 0.00 | 48 | 1017.7 |
| 20260503214004 | 80 | 265 | 0.0 | 1.0 | 0.00 | 0.00 | 0.00 | 47 | 1017.7 |
| 20260503213504 | 80 | 295 | 0.0 | 2.0 | 0.00 | 0.00 | 0.00 | 46 | 1017.8 |
| 20260503213004 | 81 | 172 | 1.0 | 3.0 | 0.00 | 0.00 | 0.00 | 42 | 1017.9 |
| 20260503212504 | 82 | 197 | 1.0 | 3.0 | 0.00 | 0.00 | 0.00 | 41 | 1017.9 |
| 20260503212025 | 82 | 187 | 2.0 | 5.0 | 0.00 | 0.00 | 0.00 | 39 | 1018.0 |
| 20260503211504 | 83 | 177 | 2.0 | 6.0 | 0.00 | 0.00 | 0.00 | 40 | 1018.1 |
| 20260503211004 | 83 | 209 | 2.0 | 8.0 | 0.00 | 0.00 | 0.00 | 38 | 1018.2 |
| 20260503210503 | 83 | 197 | 2.0 | 8.0 | 0.00 | 0.00 | 0.00 | 40 | 1018.4 |
| 20260503210004 | 83 | 206 | 2.0 | 6.0 | 0.00 | 0.00 | 0.00 | 43 | 1018.5 |
| 20260503205504 | 83 | 194 | 2.0 | 6.0 | 0.00 | 0.00 | 0.00 | 39 | 1018.5 |
| 20260503205025 | 84 | 155 | 2.0 | 4.0 | 0.00 | 0.00 | 0.00 | 38 | 1018.6 |
| 20260503204504 | 83 | 157 | 2.0 | 5.0 | 0.00 | 0.00 | 0.00 | 39 | 1018.6 |
| 20260503204025 | 82 | 165 | 2.0 | 5.0 | 0.00 | 0.00 | 0.00 | 39 | 1018.7 |
| 20260503203504 | 84 | 160 | 3.0 | 6.0 | 0.00 | 0.00 | 0.00 | 37 | 1018.9 |
| 20260503203004 | 84 | 177 | 3.0 | 7.0 | 0.00 | 0.00 | 0.00 | 39 | 1019.0 |
| 20260503202504 | 83 | 217 | 2.0 | 7.0 | 0.00 | 0.00 | 0.00 | 40 | 1019.1 |
| 20260503202004 | 83 | 217 | 2.0 | 5.0 | 0.00 | 0.00 | 0.00 | 42 | 1019.2 |
| 20260503201504 | 83 | 198 | 2.0 | 5.0 | 0.00 | 0.00 | 0.00 | 43 | 1019.3 |
| 20260503201004 | 82 | 208 | 1.0 | 5.0 | 0.00 | 0.00 | 0.00 | 42 | 1019.4 |
| 20260503200504 | 83 | 176 | 2.0 | 5.0 | 0.00 | 0.00 | 0.00 | 42 | 1019.4 |
| 20260503200004 | 84 | 144 | 2.0 | 4.0 | 0.00 | 0.00 | 0.00 | 44 | 1019.5 |
| 20260503195504 | 81 | 134 | 2.0 | 4.0 | 0.00 | 0.00 | 0.00 | 44 | 1019.6 |
| 20260503195025 | 80 | 197 | 1.0 | 4.0 | 0.00 | 0.00 | 0.00 | 45 | 1019.6 |
| 20260503194504 | 80 | 219 | 2.0 | 5.0 | 0.00 | 0.00 | 0.00 | 43 | 1019.8 |
| 20260503194004 | 81 | 210 | 2.0 | 5.0 | 0.00 | 0.00 | 0.00 | 43 | 1019.9 |
| 20260503193503 | 80 | 208 | 1.0 | 5.0 | 0.00 | 0.00 | 0.00 | 49 | 1019.9 |
| 20260503193004 | 78 | 138 | 1.0 | 5.0 | 0.00 | 0.00 | 0.00 | 49 | 1019.9 |
| 20260503192504 | 80 | 327 | 2.0 | 5.0 | 0.00 | 0.00 | 0.00 | 44 | 1020.0 |
| 20260503192003 | 82 | 282 | 2.0 | 5.0 | 0.00 | 0.00 | 0.00 | 40 | 1020.1 |
| 20260503191503 | 83 | 208 | 2.0 | 5.0 | 0.00 | 0.00 | 0.00 | 47 | 1020.2 |
| 20260503191004 | 82 | 186 | 2.0 | 7.0 | 0.00 | 0.00 | 0.00 | 40 | 1020.4 |
| 20260503190525 | 82 | 195 | 2.0 | 7.0 | 0.00 | 0.00 | 0.00 | 41 | 1020.5 |
| 20260503190004 | 81 | 238 | 2.0 | 7.0 | 0.00 | 0.00 | 0.00 | 42 | 1020.5 |
| 20260503185503 | 80 | 244 | 2.0 | 7.0 | 0.00 | 0.00 | 0.00 | 46 | 1020.6 |
| 20260503185004 | 80 | 293 | 2.0 | 7.0 | 0.00 | 0.00 | 0.00 | 41 | 1020.5 |
| 20260503184503 | 81 | 325 | 2.0 | 4.0 | 0.00 | 0.00 | 0.00 | 46 | 1020.6 |
| 20260503184004 | 81 | 253 | 2.0 | 5.0 | 0.00 | 0.00 | 0.00 | 44 | 1020.7 |
| 20260503183504 | 82 | 159 | 2.0 | 6.0 | 0.00 | 0.00 | 0.00 | 43 | 1020.8 |
| 20260503183004 | 81 | 157 | 2.0 | 6.0 | 0.00 | 0.00 | 0.00 | 40 | 1020.9 |
| 20260503182524 | 80 | 209 | 2.0 | 5.0 | 0.00 | 0.00 | 0.00 | 42 | 1020.9 |
| 20260503182005 | 80 | 249 | 2.0 | 5.0 | 0.00 | 0.00 | 0.00 | 43 | 1021.1 |
| 20260503181505 | 80 | 225 | 2.0 | 6.0 | 0.00 | 0.00 | 0.00 | 43 | 1021.2 |
| 20260503181004 | 80 | 194 | 2.0 | 6.0 | 0.00 | 0.00 | 0.00 | 39 | 1021.3 |
| 20260503180503 | 82 | 173 | 2.0 | 6.0 | 0.00 | 0.00 | 0.00 | 43 | 1021.4 |
| 20260503180004 | 81 | 138 | 2.0 | 4.0 | 0.00 | 0.00 | 0.00 | 42 | 1021.5 |
| 20260503175504 | 80 | 169 | 2.0 | 4.0 | 0.00 | 0.00 | 0.00 | 45 | 1021.5 |
| 20260503175003 | 81 | 188 | 2.0 | 5.0 | 0.00 | 0.00 | 0.00 | 47 | 1021.6 |
| 20260503174503 | 80 | 225 | 2.0 | 6.0 | 0.00 | 0.00 | 0.00 | 46 | 1021.8 |
| 20260503174025 | 80 | 213 | 2.0 | 6.0 | 0.00 | 0.00 | 0.00 | 48 | 1021.8 |
| 20260503173503 | 80 | 146 | 1.0 | 3.0 | 0.00 | 0.00 | 0.00 | 47 | 1021.8 |
| 20260503173003 | 79 | 151 | 2.0 | 4.0 | 0.00 | 0.00 | 0.00 | 44 | 1021.8 |
| 20260503172504 | 80 | 175 | 2.0 | 5.0 | 0.00 | 0.00 | 0.00 | 41 | 1021.9 |
| 20260503172004 | 80 | 196 | 2.0 | 7.0 | 0.00 | 0.00 | 0.00 | 46 | 1022.0 |
| 20260503171504 | 80 | 224 | 3.0 | 7.0 | 0.00 | 0.00 | 0.00 | 46 | 1022.1 |
| 20260503171003 | 80 | 236 | 2.0 | 6.0 | 0.00 | 0.00 | 0.00 | 47 | 1022.1 |
| 20260503170503 | 80 | 219 | 2.0 | 5.0 | 0.00 | 0.00 | 0.00 | 47 | 1022.1 |
| 20260503151004 | 72 | 188 | 2.0 | 5.0 | 0.00 | 0.01 | 0.00 | 62 | 1022.6 |
| 20260503150503 | 71 | 192 | 2.0 | 5.0 | 0.00 | 0.01 | 0.00 | 66 | 1022.6 |